SCP
0 0 0 0 0 0 0 0 0 0 0 0 0 0 0 0 0 0 0 0 0 0 0 0 0 0 0 0 0 0 0 0 0 0 0 0 0 0 0 0 0 0 0
0 0 0 0 0 0 0 0 0 0 0 0 0 0 0 0 0 0 0 0 0 0 0 0 0 0 0 0 0 0 0 0 0 0 0 0 0 0 0 0 0 0 0
0 0 0 0 0 0 0 0 0 0 0 0 0 0 0 0 0 0 0 0 0 0 0 0 0 0 0 0 0 0 0 0 0 0 0 0 0 0 0 0 0 0 0
1 1 1 0 0 0 0 0 0 0 0 0 0 0 0 0 0 0 0 0 0 0 0 0 0 0 0 0 0 0 0 0 0 0 0 0 0 0 0 0 0 0 0
1 1 1 1 1 1 0 0 0 0 0 0 0 0 0 0 0 0 0 0 0 0 0 0 0 0 0 0 0 0 0 0 0 0 0 0 0 0 0 0 0 0 0
1 1 1 1 1 1 1 1 0 0 0 0 0 0 0 0 0 0 0 0 0 0 0 0 0 0 0 0 0 0 0 0 0 0 0 0 0 0 0 0 0 0 0
1 1 1 1 1 1 1 1 0 0 0 0 0 0 0 0 0 0 0 0 0 0 0 0 0 0 0 0 0 0 0 0 0 0 0 0 0 0 0 0 0 0 0
1 1 1 1 1 1 1 1 1 0 0 0 0 0 0 0 0 0 0 0 0 0 0 0 0 0 0 0 0 0 0 0 0 0 0 0 0 0 0 0 1 0 0
2 1 1 1 1 1 1 1 1 1 1 0 0 0 0 0 0 0 0 0 0 0 0 0 0 0 0 0 0 0 0 0 0 0 0 0 1 1 1 1 1 1 0
2 2 1 1 1 1 1 1 1 1 1 1 1 1 0 0 0 0 0 0 0 0 0 0 0 0 0 0 0 0 0 0 0 0 0 0 1 1 1 1 1 1 0
2 2 1 1 1 1 1 1 1 1 1 1 1 1 1 1 1 0 0 0 0 0 0 0 0 0 0 0 0 0 0 0 0 0 0 0 0 1 1 1 0 0 0
2 2 1 1 1 1 1 1 1 1 1 1 1 1 1 1 1 1 0 0 0 0 0 0 0 0 0 0 0 0 0 0 0 0 0 0 0 0 0 1 0 0 0
1 1 1 1 2 2 2 2 2 1 1 1 1 1 1 0 0 0 0 0 0 0 0 0 0 0 0 0 0 0 0 0 0 0 0 0 0 0 0 0 0 0 0
1 1 1 2 2 2 2 2 2 2 1 1 1 1 1 0 0 0 0 0 0 0 0 0 0 0 0 0 0 0 0 0 0 0 0 0 0 0 0 0 0 0 0
0 0 1 1 1 1 1 1 1 1 1 1 1 1 0 0 0 0 0 0 0 0 0 0 0 0 0 0 0 0 0 0 0 0 0 0 0 0 0 0 0 0 0
0 0 0 0 0 0 0 0 0 0 0 0 0 0 0 0 0 0 0 0 0 0 0 0 0 0 0 0 0 0 0 0 0 0 0 0 0 0 0 0 0 0 0
0 0 0 0 0 0 0 0 0 0 0 0 0 0 0 0 0 0 0 0 0 0 0 0 0 0 0 0 0 0 0 0 0 0 0 0 0 0 0 0 0 0 0
0 0 0 0 0 0 0 0 0 0 0 0 0 0 0 0 0 0 0 0 0 0 0 0 0 0 0 0 0 0 0 0 0 0 0 0 0 0 0 0 0 0 0
0 0 0 0 0 0 0 0 0 0 0 0 0 0 0 0 0 0 0 0 0 0 0 0 0 0 0 0 0 0 0 0 0 0 0 0 0 0 0 0 0 0 0
0 0 0 0 0 0 0 0 0 0 0 0 0 0 0 0 0 0 0 0 0 0 0 0 0 0 0 0 0 0 0 0 0 0 0 0 0 0 0 0 0 0 0
0 0 0 0 0 0 0 0 0 0 0 0 0 0 0 0 0 0 0 0 0 0 0 0 0 0 0 0 0 0 0 0 0 0 0 0 0 0 0 0 0 0 0
0 0 0 0 0 0 0 0 0 0 0 0 0 0 0 0 0 0 0 0 0 0 0 0 0 0 0 0 0 0 0 0 0 0 0 0 0 0 0 0 0 0 0
0 0 0 0 0 0 0 0 0 0 0 0 0 0 0 0 0 0 0 0 0 0 0 0 0 0 0 0 0 0 0 0 0 0 0 0 0 0 0 0 0 0 0
0 0 0 0 0 0 0 0 0 0 0 0 0 0 0 0 0 0 0 0 0 0 0 0 0 0 0 0 0 0 0 0 0 0 0 0 0 0 0 0 0 0 0
0 0 0 0 0 0 0 0 0 0 0 0 0 0 0 0 0 0 0 0 0 0 0 0 0 0 0 0 0 0 0 0 0 0 0 0 0 0 0 0 0 0 0
0 0 0 0 0 0 0 0 0 0 0 0 0 0 0 0 0 0 0 0 0 0 0 0 0 0 0 0 0 0 0 0 0 0 0 0 0 0 0 0 0 0 0
Wind_Speed
2 2 2 2 2 2 3 3 3 3 2 2 3 3 3 4 4 3 4 10 10 9 9 9 9 8 8 7 7 6 5 5 4 3 3 2 2 1 1 1 1 2 3
2 1 1 1 1 1 1 2 3 2 1 2 2 3 3 4 4 3 3 7 11 11 11 11 11 10 10 9 9 9 8 8 7 6 5 5 4 4 3 2 1 1 1
2 2 1 1 2 2 2 2 2 1 1 2 3 4 4 4 4 4 4 3 6 11 12 13 12 12 11 11 11 11 11 10 10 9 8 7 7 6 6 5 4 3 2
3 2 1 1 2 1 1 1 2 2 2 3 3 3 3 3 4 5 4 3 3 4 9 13 12 12 12 12 12 12 11 11 11 11 11 10 9 9 8 7 6 6 5
3 2 2 2 2 1 1 2 2 2 3 3 3 3 3 3 4 4 5 4 4 3 3 6 10 10 10 11 12 12 11 10 11 12 13 12 12 11 10 10 9 8 7
2 2 2 2 1 1 2 2 2 3 2 2 3 3 4 4 4 4 5 4 2 2 2 2 3 5 8 9 10 10 10 10 10 10 12 13 13 13 13 12 11 10 10
1 1 1 1 1 1 2 2 2 3 2 1 2 3 4 6 6 5 4 2 1 0 1 1 1 1 0 3 5 6 8 9 9 9 10 11 13 14 15 14 13 12 11
1 1 0 0 1 1 2 2 2 1 2 1 2 2 3 4 3 3 2 1 1 1 2 2 2 2 2 2 3 5 6 8 10 10 9 10 11 12 14 15 15 15 14
2 1 1 1 1 0 1 2 2 2 2 2 2 2 2 3 3 3 1 1 1 1 2 2 3 3 4 4 4 7 9 9 9 10 10 10 10 10 11 13 15 15 15
3 3 2 2 1 1 1 2 2 2 2 2 2 2 3 2 1 3 3 1 1 2 2 3 4 5 6 5 7 11 11 10 9 10 10 10 9 9 9 9 10 11 12
4 4 3 2 2 1 2 2 2 2 2 2 2 2 2 2 3 3 3 2 1 1 3 4 4 5 6 6 5 9 11 11 10 10 10 9 8 7 7 6 5 6 8
3 3 3 2 2 2 2 2 2 2 2 2 2 1 1 2 1 2 3 2 1 1 4 5 5 5 5 6 7 11 11 11 11 10 10 9 8 6 6 4 3 4 5
2 3 3 3 2 2 3 2 2 2 2 2 2 1 1 1 1 1 1 1 1 1 2 4 5 4 5 5 5 10 11 12 11 11 11 10 10 8 7 5 3 2 2
3 3 3 3 3 3 3 3 2 2 2 2 2 2 1 2 2 2 1 0 1 1 1 3 3 5 4 4 6 9 7 11 11 12 12 11 11 8 8 7 5 3 1
3 4 3 3 3 3 3 2 2 2 2 2 2 3 2 2 3 2 2 1 1 1 1 2 2 3 3 3 7 5 4 10 11 12 12 12 11 10 9 9 9 9 7
3 3 3 3 3 3 3 2 2 2 3 2 2 3 3 2 2 3 2 2 1 0 1 2 2 2 3 4 7 5 5 10 11 11 11 12 12 12 12 11 11 10 10
3 3 3 3 3 3 3 2 2 2 3 3 3 3 4 3 3 2 2 2 2 2 1 2 2 2 3 4 4 4 4 4 5 11 11 11 12 12 12 12 11 10 9
3 3 3 3 3 3 3 3 3 3 4 4 4 4 4 3 4 3 2 3 2 2 1 2 1 2 2 2 3 3 3 4 3 8 10 10 10 10 10 10 10 9 9
3 3 3 3 3 3 3 3 4 4 5 4 4 4 4 4 3 3 3 3 2 2 2 2 2 1 1 1 2 2 3 3 3 5 7 8 8 8 8 7 8 7 7
3 3 3 3 3 3 3 3 4 5 5 5 5 5 5 5 4 3 3 3 2 2 2 3 2 1 1 1 2 2 2 2 2 3 5 5 6 6 6 6 6 6 6
3 3 3 3 3 3 3 3 3 4 4 4 5 5 5 6 7 5 4 4 3 2 2 2 1 1 1 2 1 1 2 2 2 3 3 3 2 2 2 4 5 5 5
3 3 3 3 3 3 5 5 4 4 4 4 3 3 3 4 6 8 8 8 6 4 2 2 1 2 1 1 2 2 2 2 2 3 3 3 2 1 1 1 3 5 5
3 3 3 3 4 5 6 5 6 4 4 3 2 2 2 2 4 2 4 7 7 8 6 2 2 2 2 2 2 2 2 1 1 2 2 2 2 2 2 2 3 4 5
3 3 3 4 4 5 6 6 6 4 3 2 2 2 2 2 2 2 3 3 3 3 4 4 3 3 3 2 2 1 0 1 2 1 2 1 3 2 3 2 2 3 4
4 3 3 4 4 4 6 6 5 2 2 2 2 1 1 2 3 3 2 1 1 1 3 4 4 2 3 3 3 2 2 2 2 2 2 1 2 3 3 2 2 3 5
4 4 4 4 4 4 7 7 5 2 2 2 2 2 2 3 2 1 1 1 1 1 1 1 0 1 0 1 3 2 2 1 0 1 2 2 2 3 4 3 2 2 4
Wind_Direction
176 162 182 163 195 184 169 195 231 243 220 238 239 238 254 254 239 222 175 190 197 210 229 243 248 246 246 241 238 235 231 233 235 230 228 228 218 208 168 108 76 72 68
157 132 206 170 210 180 193 208 240 248 246 248 265 273 263 263 257 247 207 199 208 214 225 236 245 249 249 248 243 237 233 231 232 232 230 230 228 226 225 222 212 164 85
155 155 234 192 205 203 210 227 275 300 288 279 272 264 256 255 262 264 249 210 203 215 224 234 241 247 250 252 252 245 236 231 229 229 229 229 228 227 227 227 224 219 215
163 163 198 230 231 209 196 209 246 260 256 251 255 263 261 257 255 259 259 243 212 200 214 227 238 245 250 253 257 257 249 237 230 228 228 229 228 227 227 227 226 224 224
164 161 194 225 230 217 213 221 225 232 251 259 262 269 273 272 265 263 260 254 236 210 188 207 222 236 247 256 262 266 267 257 240 232 229 228 228 227 228 228 227 225 224
157 162 192 233 235 219 231 238 245 250 249 262 282 284 277 269 262 257 256 256 249 216 184 170 193 227 239 254 267 277 282 283 267 248 239 233 230 228 227 226 226 225 226
144 161 192 245 257 234 243 253 258 262 262 264 290 290 274 255 246 242 232 227 244 188 117 114 113 89 270 252 271 290 301 300 296 279 258 246 238 231 227 225 224 224 225
78 90 105 284 294 291 291 284 278 263 259 229 216 273 301 306 284 245 203 168 133 71 83 88 77 60 49 52 39 13 344 329 314 305 287 267 254 244 235 231 229 226 225
83 77 57 5 331 308 282 289 289 258 260 265 225 217 246 271 329 334 14 109 101 81 70 72 71 56 50 54 45 28 17 356 333 318 305 290 274 262 250 241 236 231 228
78 57 40 22 5 353 308 299 302 280 261 262 270 247 235 236 254 301 324 346 42 62 60 57 59 54 52 57 44 29 20 5 345 328 316 305 292 280 268 255 245 235 228
83 64 40 24 16 6 345 335 325 309 282 266 262 273 273 269 233 229 265 283 333 30 55 58 60 53 51 55 40 24 20 8 353 339 329 319 308 304 302 272 255 246 238
99 81 52 30 28 22 5 355 340 324 313 300 295 283 266 259 257 241 246 250 242 70 62 53 53 50 48 47 31 22 21 12 2 353 349 349 347 345 338 319 280 259 253
96 76 55 36 32 23 9 4 355 349 353 341 328 317 327 328 329 295 258 264 254 153 102 66 47 45 47 42 19 20 23 17 13 10 7 9 10 4 354 335 320 289 279
89 75 59 46 37 27 18 11 12 10 18 10 5 6 22 22 18 14 0 333 265 239 119 103 59 39 39 40 22 29 16 21 23 25 25 23 19 18 18 20 26 28 51
83 70 62 56 46 36 24 22 38 35 46 41 30 34 48 39 31 23 21 28 197 221 185 99 82 36 26 44 29 26 16 26 31 36 36 33 33 37 38 44 48 52 60
82 76 66 62 53 42 33 40 53 54 70 56 49 61 59 47 41 28 19 16 23 154 147 94 88 59 36 35 34 28 24 34 35 38 40 44 47 47 48 50 53 55 56
84 78 72 69 62 51 46 56 64 67 80 70 60 68 61 51 49 31 24 30 28 28 127 105 88 62 50 34 17 19 28 33 32 40 44 47 47 48 50 50 50 50 51
90 87 80 78 71 61 56 66 70 65 71 72 68 70 62 63 52 35 37 40 33 22 81 119 97 69 59 38 22 19 21 33 29 37 43 47 46 45 45 46 46 45 43
95 90 87 87 80 72 65 68 76 71 67 64 62 63 57 65 62 47 45 41 30 29 49 102 102 78 69 35 30 17 24 19 21 33 36 38 39 40 40 41 41 38 35
107 100 93 88 87 84 79 78 85 83 78 69 61 57 51 53 53 46 48 33 29 45 72 91 101 94 70 22 52 25 12 6 10 22 22 21 26 31 34 39 37 30 22
118 116 117 110 101 96 93 93 96 102 97 87 74 70 66 66 61 59 58 38 34 48 67 85 90 80 50 42 32 14 16 346 8 23 8 348 2 10 15 32 34 21 10
128 125 127 127 118 106 111 113 108 102 102 100 94 86 84 67 69 68 68 62 59 64 65 66 71 86 69 51 33 32 30 25 344 348 13 328 352 7 350 58 20 10 356
140 132 129 123 117 124 130 123 116 107 105 109 113 104 98 89 70 60 67 67 59 58 59 87 87 84 80 52 58 36 31 24 274 295 14 327 341 351 333 2 6 357 349
143 141 138 130 125 138 139 134 127 112 114 118 109 106 116 112 89 71 70 64 56 53 56 63 83 73 76 62 63 64 278 329 302 331 51 345 332 333 327 324 327 358 345
150 150 146 143 143 153 158 156 146 133 141 145 128 94 96 120 114 89 81 84 75 75 86 90 90 85 64 49 46 51 33 34 357 350 18 30 340 331 319 315 317 339 336
158 156 158 164 166 173 179 180 179 169 167 166 171 176 157 146 143 100 68 98 117 110 90 86 31 352 31 43 60 89 108 94 6 323 8 32 359 355 330 313 324 329 327